Volver al catálogo

ONEWEB-0214

ActivoComunicacionesPO
NORAD 48788·PAYLOAD·🇬🇧 United Kingdom

Lanzado May 28, 2021 desde Vostochny Cosmodrome

Loading…

Próximos Pases (próximas 24 horas)

TLE

ActualizadoSource: CelesTrak SupGP

Época: Sep 14, 2026, 20:22 UTC

1 48788C 21045X   26257.84875414  .00001814  00000+0  48254-2 0  2575
2 48788  87.8990 241.3108 0002360  87.8676 349.8422 13.15545009    16

Sigue ONEWEB-0214 en tiempo real con AllMySat

Download on the App Store